www.pogodaiklimat.ru

Погода и климат >> Архив погоды >> Новая Зеландия >> Гисборн


ПОГОДА в Гисборне

  • Прогноз погоды в Гисборне
  • Монитор погоды в Гисборне

АРХИВ ПОГОДЫ в Гисборне

Время (UTC), дата Ветер
(напр.,м/с)
 
Видим.   Явления Облачность Т
(С)
Тd
(С)
f
(%)
Тe
(С)
Тes
(С)
Комфортность P
(гПа)
Po
(гПа)
Тmin
(С)
Tmax
(С)
R
(мм)
R24
(мм)
S
(см)
06 12.06 СВ 1 1000 м н/о +12.2 +11.1 93 +13 +13 1011.6 1011.1 2
09 12.06 СЗ 1 1000 м н/о +11.8 +11.4 97 +11 +11 1011.4 1010.9
12 12.06 СЗ 1 4000 м н/о +11.9 +11.6 98 +12 +12 1010.3 1009.8 +15.0 22
15 12.06 С 1 2000 м н/о +12.6 +12.4 99 +12 +12 1008.9 1008.4
18 12.06 С 2 10 км н/о +12.7 +12.5 99 +12 +12 1008.1 1007.6 12
21 12.06 С 1 20 км н/о +12.4 +12.2 99 +12 +12 1009.4 1008.9
00 13.06 ЮЗ 1 20 км н/о +13.5 +12.8 96 +14 +14 1009.2 1008.7 +11.7 37
03 13.06 В 2 4000 м н/о +14.2 +13.3 94 +14 +14 1007.6 1007.1
06 13.06 Ю 4 2000 м н/о +13.6 +13.2 97 +12 +12 1006.4 1005.9 20
09 13.06 С 2 20 км н/о +13.2 +12.3 94 +12 +12 1006.8 1006.3
12 13.06 В 1 2000 м н/о +11.7 +11.3 97 +11 +11 1008.5 1008.0 +14.5 7
15 13.06 СЗ 2 10 км н/о +11.1 +10.9 99 +10 +10 1007.1 1006.6
18 13.06 СЗ 3 10 км н/о +12.1 +12.0 99 +11 +11 1005.8 1005.3 2
21 13.06 СВ 1 10 км н/о +13.0 +12.6 97 +14 +14 1007.5 1007.0
00 14.06 Ю 1 4000 м н/о +14.3 +13.8 97 +15 +15 1006.7 1006.2 +9.8 29
03 14.06 Ю 2 4000 м н/о +14.2 +13.6 96 +14 +14 1004.9 1004.4
06 14.06 Ю 5 4000 м н/о +13.9 +13.3 96 +12 +12 1005.1 1004.6 4
09 14.06 ЮЗ 2 10 км н/о +14.0 +12.7 92 +14 +14 1004.9 1004.4
12 14.06 С 1 10 км н/о +13.1 +12.5 96 +13 +13 1004.2 1003.7 +14.9 0.2
15 14.06 СЗ 3 20 км н/о +12.4 +11.1 92 +11 +11 1003.2 1002.7
18 14.06 СЗ 3 20 км н/о +12.9 +10.9 88 +12 +12 1003.3 1002.8
21 14.06 З 3 20 км н/о +12.8 +10.5 86 +11 +11 1004.1 1003.6
00 15.06 Ю 3 20 км н/о +16.1 +11.3 73 +16 +16 1003.4 1002.9 +11.0 4
03 15.06 Ю 3 20 км н/о +15.1 +11.4 79 +15 +15 1002.8 1002.3
06 15.06 ЮВ 1 10 км н/о +13.6 +11.8 89 +15 +15 1004.2 1003.7
09 15.06 штиль 0 4000 м н/о +12.1 +11.6 97 +11 +11 1005.3 1004.8
12 15.06 СЗ 2 4000 м н/о +9.6 +9.4 99 +8 +8 1005.7 1005.2 +17.3 0.4
15 15.06 СЗ 2 500 м н/о +7.0 +6.8 99 +5 +5 1006.2 1005.7
18 15.06 СЗ 2 20 км н/о +5.4 +5.1 98 +3 +3 1007.3 1006.8
21 15.06 СЗ 3 20 км н/о +10.5 +7.0 79 +8 +8 1009.3 1008.8
00 16.06 З 3 20 км н/о +15.9 +7.0 55 +15 +15 1009.4 1008.9 +4.8 0.6
03 16.06 СЗ 5 20 км н/о +17.2 +5.3 45 +17 +17 1008.9 1008.4
06 16.06 СВ 2 10 км н/о +11.7 +5.6 66 +11 +11 1009.6 1009.1
09 16.06 СЗ 5 20 км н/о +11.4 +6.8 73 +9 +9 1010.7 1010.2
12 16.06 СЗ 3 20 км н/о +10.3 +4.7 68 +8 +8 1011.2 1010.7 +17.7
15 16.06 СЗ 6 20 км н/о +10.6 +3.0 59 +8 +8 1012.0 1011.5
18 16.06 СЗ 4 20 км н/о +8.8 +2.9 66 +6 +6 1012.0 1011.5
21 16.06 СЗ 7 20 км н/о +10.9 +3.9 62 +8 +8 1013.0 1012.5
00 17.06 СЗ 6 20 км н/о +14.6 +5.5 54 +13 +13 1012.3 1011.8 +8.1
03 17.06 СЗ 4 20 км н/о +15.5 +5.4 51 +15 +15 1010.8 1010.3
06 17.06 СЗ 2 20 км н/о +10.0 +4.0 66 +9 +9 1012.1 1011.6
09 17.06 СЗ 3 20 км н/о +8.4 +3.9 73 +6 +6 1013.5 1013.0
12 17.06 З 1 20 км н/о +4.9 +2.5 84 +4 +4 1014.5 1014.0 +15.7
15 17.06 ЮЗ 2 20 км н/о +6.8 +3.5 79 +5 +5 1016.5 1016.0
18 17.06 СЗ 3 20 км н/о +4.8 +2.6 86 +2 +2 1017.1 1016.6
21 17.06 СЗ 3 20 км н/о +8.4 +2.3 65 +6 +6 1018.8 1018.3
00 18.06 ЮЗ 6 20 км н/о +13.2 +2.3 48 +11 +11 1019.2 1018.7 +2.7
03 18.06 ЮЗ 4 20 км н/о +13.3 +4.8 56 +12 +12 1019.6 1019.1
06 18.06 Ю 3 20 км н/о +11.0 +5.0 66 +9 +9 1021.6 1021.1
09 18.06 СЗ 2 20 км н/о +5.0 +3.5 90 +2 +2 1023.0 1022.5
12 18.06 З 2 20 км н/о +6.5 +4.3 86 +4 +4 1024.6 1024.1 +13.9
15 18.06 СЗ 2 20 км н/о +4.0 +1.6 84 +1 +1 1025.3 1024.8
18 18.06 СЗ 3 20 км н/о +5.1 +2.7 84 +2 +2 1025.4 1024.9
21 18.06 СЗ 3 20 км н/о +7.2 +4.0 80 +4 +4 1027.3 1026.8
00 19.06 З 3 20 км н/о +11.1 +5.7 69 +10 +10 1026.9 1026.4 +3.5
03 19.06 З 2 20 км н/о +10.3 +8.0 86 +9 +9 1026.4 1025.9

 

Местоположение метеостанции Гисборн (Новая Зеландия): широта -38.65 долгота 177.98 высота над уровнем моря 5 м.

В архиве по умолчанию представлена погода в Гисборне за последнюю неделю. Архивные данные за месяц целиком и за предыдущие месяцы, начиная с января 2011 года, Вы можете получить, выбрав интересующий диапазон дат из раскрывающегося списка и нажав кнопку "Ввод!".


*Определитесь, кто Вы:
робот инопланетянин человек

Внимание! Время в таблицах - всемирное. Для получения местного времени необходимо прибавить поправку, которая равна 12 ч.

Смотрите также архив погоды в соседних городах и на ближайших метеорологических станциях:

Погода в Хикс-Бей (Новая Зеландия) (126 км)
Погода в Нейпире (Новая Зеландия) (132 км)
Погода на Таупо (Новая Зеландия) (167 км)
Погода в Тауранге (Новая Зеландия) (191 км)
Погода на Уэйауру (Новая Зеландия) (219 км)
Погода в Пальмерстон-Норте (Новая Зеландия) (275 км)
Погода в Тахароа (Новая Зеландия) (290 км)
Погода в Каслпойнт (Новая Зеландия) (292 км)
Погода в Нью-Плимуте (Новая Зеландия) (332 км)
Погода в Окленде (Новая Зеландия) (334 км)

Пояснения к столбцам:

Ветер - указаны скорость ветра в м/с - средняя за 10 мин, порывы в срок и между сроками (в фигурных скобках) и направление, откуда дует ветер: С - северный, СВ - северо-восточный, В - восточный, ЮВ - юго-восточный, Ю - южный, ЮЗ - юго-западный, З - западный, СЗ - северо-западный.
Видимость - горизонтальная дальность видимости в метрах или километрах. При видимости от 1 до 10 км при отсутствии осадков обычно наблюдается дымка, при ухудшении видимости до 1 км и менее - туман. В сухую погоду видимость может ухудшаться дымом, пылью или мглою.
Явления - указаны атмосферные явления, наблюдавшиеся в срок или в последний час перед сроком; фигурными скобками обозначены явления, наблюдавшиеся между сроками (за 1-3 часа до срока); квадратными скобками обозначены град или гололедные отложения с указанием их диаметра в мм.
Облачность - указаны через наклонную черту общая и нижняя облачность в баллах и высота нижней границы облаков в метрах; квадратными скобками обозначены формы облаков: Ci - перистые, Cs - перисто-слоистые, Cc - перисто-кучевые, Ac - высококучевые, As - высокослоистые, Sc - слоисто-кучевые, Ns - слоисто-дождевые, Cu - кучевые, Cb - кучево-дождевые. Подробнее классификацию облаков см. в Атласе облаков (PDF).
T - Температура воздуха - температура, измеренная на высоте 2 м над землей.
Td - Температура точки росы - температура, при понижении до которой содержащийся в воздухе водяной пар достигнет насыщения.
f - Относительная влажность воздуха - влажноcть воздуха, измеренная на высоте 2 м над землей.
Te - Эффективная температура - температура, которую ощущает одетый по сезону человек в тени. Характеристика душности погоды. При расчете учитывается влияние влажности воздуха и скорости ветра на теплоощущения человека.
Tes - Эффективная температура на солнце - температура, которую ощущает человек, с поправкой на солнечный нагрев. Характеристика знойности погоды. Зависит от высоты солнца над горизонтом, облачности и скорости ветра. Ночью, в пасмурную погоду, а также при ветре 12 м/с и более поправка равна нулю.
P - Атмосферное давление - приведенное к уровню моря атмосферное давление.
Po - Атмосферное давление - измеренное на уровне метеостанции атмосферное давление.
Tmin - Минимальная температура - минимум температуры воздуха на высоте 2 м над землей.
Tmax - Максимальная температура - максимум температуры воздуха на высоте 2 м над землей.
R - Количество осадков - Количество выпавших осадков за период времени, мм. При наведении курсора мыши на число - период времени, за который выпало указанное количество осадков.
R24 - Количество осадков - Количество выпавших осадков за 24 часа, мм.
S - Снежный покров - Высота снежного покрова, см. При наведении курсора мыши на число - состояние снежного покрова и степень покрытия местности в баллах.